Location: Newark
(16.3678°N, 77.8722°E)
Time: 14:33:47
(UTC+00:00)

Vanguard 1 - Visible Passes

Search period start: 20 January 2021 00:00
Search period end: 30 January 2021 00:00
Orbit: 649 x 3834 km, 34.3° (Epoch: 19 January)

Date Brightness Start Highest point End Pass type
(mag) Time Alt. Az. Time Alt. Az. Time Alt. Az.
20 Jan 12.3 13:38:55 10° WNW 14:00:26 57° NNE 14:08:59 28° E visible
20 Jan 12.1 16:08:18 10° WNW 16:21:44 53° W 16:21:44 53° W visible
21 Jan 12.1 14:00:54 10° WNW 14:22:23 67° NNE 14:29:20 36° E visible
21 Jan 12.5 16:30:28 10° WNW 16:42:06 41° W 16:42:06 41° W visible
22 Jan 11.9 14:22:47 10° WNW 14:44:03 79° NNE 14:49:47 44° ESE visible
22 Jan 12.8 16:53:01 10° WNW 17:02:33 30° WSW 17:02:33 30° WSW visible
23 Jan 11.8 14:44:40 10° WNW 15:05:25 85° SW 15:10:19 49° SE visible
23 Jan 13.2 17:16:17 10° W 17:23:06 21° WSW 17:23:06 21° WSW visible
24 Jan 12.7 12:37:23 10° WNW 13:00:40 61° NNE 13:16:00 10° E visible
24 Jan 12.0 15:06:39 10° WNW 15:26:28 68° SW 15:30:56 47° SSE visible
24 Jan 13.5 17:41:00 10° W 17:43:44 13° WSW 17:43:44 13° WSW visible
25 Jan 12.6 12:59:17 10° WNW 13:22:43 70° NNE 13:37:30 10° ESE visible
25 Jan 12.2 15:28:52 10° WNW 15:47:17 52° SW 15:51:39 40° S visible
26 Jan 12.4 13:21:06 10° WNW 13:44:28 82° NNE 13:58:45 10° ESE visible
26 Jan 12.6 15:51:30 10° WNW 16:07:53 38° SW 16:12:26 30° S visible
27 Jan 12.4 13:42:57 10° WNW 14:05:55 84° SW 14:19:43 10° SE visible
27 Jan 12.9 16:14:48 10° W 16:28:23 27° SW 16:33:17 21° SSW visible
28 Jan 12.6 14:04:54 10° WNW 14:27:06 69° SW 14:40:25 10° SE visible
28 Jan 13.3 16:39:17 10° W 16:48:54 18° SW 16:54:12 13° SSW visible
29 Jan 12.8 14:27:06 10° WNW 14:48:01 54° SW 15:00:48 10° SSE visible
29 Jan 13.6 17:08:04 10° WSW 17:09:34 10° SW 17:11:00 10° SW visible
